Regional Weather Roundup
Issued by NWS

Home | Current Version | Previous Version | Graphics & Text | Print | Product List | Glossary On
Versions: 1 2 3 4 5 6 7 8 9 10 11 12 13 14 15 16 17 18 19 20 21 22 23 24 25 26 27 28 29 30 31 32 33 34 35 36 37 38 39 40 41 42 43 44 45 46 47 48 49 50
000
ASUS43 KLMK 030102
RWRKY
KENTUCKY REGIONAL WEATHER ROUNDUP
NATIONAL WEATHER SERVICE LOUISVILLE KY
800 PM EST FRI DEC 02 2016

NOTE "FAIR" INDICATES FEW OR NO CLOUDS BELOW 12,000 FEET
WITH NO SIGNIFICANT WEATHER AND/OR OBSTRUCTIONS TO VISIBILITY.

KYZ001>023-026-027-061>063-070>075-030200-
WESTERN AND SOUTH CENTRAL KENTUCKY

CITY           SKY/WX    TMP DP  RH WIND       PRES   REMARKS
PADUCAH        CLEAR     38  29  70 CALM      30.31R
HENDERSON      CLEAR     34  27  75 CALM      30.32S
OWENSBORO      PTCLDY    40  31  70 N5        30.33R
HOPKINSVILLE   CLOUDY    46  28  50 N3        30.29R
BOWLING GREEN  CLEAR     45  30  55 N5        30.30R
GLASGOW        MOCLDY    41  31  66 N6        30.29S
$$

KYZ024-025-028>034-038-045-046-053-030200-
NORTH CENTRAL KENTUCKY

CITY           SKY/WX    TMP DP  RH WIND       PRES   REMARKS
LOUISVILLE/SDF CLOUDY    44  28  53 NW8       30.31R
LOUISVILLE/LOU CLOUDY    44  29  55 NW8       30.32R
FORT KNOX      CLOUDY    39  30  70 NW3       30.30R
$$

KYZ035>037-039>044-047>052-055>060-089>105-030200-
NORTHEAST KENTUCKY

CITY           SKY/WX    TMP DP  RH WIND       PRES   REMARKS
LEXINGTON      CLOUDY    40  29  64 N6        30.30R
COVINGTON      CLOUDY    39  30  70 W10       30.28R WCI  32
FRANKFORT      CLOUDY    41  29  62 CALM      30.30R
$$

KYZ054-064>069-076>088-106>120-030200-
SOUTHEAST KENTUCKY

CITY           SKY/WX    TMP DP  RH WIND       PRES   REMARKS
JACKSON        PTCLDY    36  28  73 VRB5      30.27R WCI  32
LONDON         CLEAR     40  28  62 NW6       30.27R
SOMERSET       PTCLDY    39  28  65 CALM      30.30R
MIDDLESBORO    CLEAR     35  31  83 CALM      30.27R
MONTICELLO     CLEAR     36  28  73 NW6       30.29R WCI  31
$$




USA.gov is the U.S. government's official web portal to all federal, state and local government web resources and services.